Location: Akdamlar
(36.8729°N, 30.5187°E)
Time: 11:05:46
(UTC+00:00)

Daily predictions for brighter satellites

Satellite Brightness Start Highest point End
(mag) Time Altitude Azimuth Time Altitude Azimuth Time Altitude Azimuth
SJ 16-02 2.3 16:20:01 10° SSW 16:24:18 54° WNW 16:28:37 10° N
Cosmos 923 Rocket 4.0 16:21:58 10° NNW 16:27:12 75° ENE 16:32:22 10° SSE
Cosmos 1378 Rocket 3.6 16:25:05 10° N 16:29:26 89° WSW 16:33:42 10° S
NOSS 2-2 (C) 3.6 16:26:40 10° S 16:30:00 37° ESE 16:33:18 10° NE
Cosmos 1943 3.9 16:25:31 10° N 16:30:39 34° ENE 16:35:45 10° SE
ISS -3.5 16:27:33 10° SSW 16:30:48 49° SE 16:34:04 10° ENE
Okean-O 2.6 16:27:51 10° SSE 16:32:16 86° ENE 16:36:43 10° NNW
Helios 1A Rocket 3.5 16:28:55 10° S 16:32:57 63° W 16:37:02 10° NNW
Cosmos 1939 Rocket 3.5 16:29:32 10° S 16:33:35 64° W 16:37:42 10° NNW
Lacrosse 5 rocket 4.2 16:33:29 10° WNW 16:35:38 14° NNW 16:37:51 10° N
CSL-04 Debris 4.3 16:34:08 10° SSE 16:39:21 53° ENE 16:44:34 10° N
Meteor 1-21 4.5 16:36:09 10° N 16:41:33 46° ENE 16:46:53 10° SSE
CZ-2D R/B 3.8 16:39:14 10° S 16:43:04 64° W 16:46:57 10° NNW
BREEZE-M DEB (TANK) 3.0 16:42:38 10° SSW 16:45:11 49° SE 16:50:59 10° NE
Cosmos 1898 Rocket 3.9 16:43:10 10° SSW 16:48:17 66° WNW 16:53:27 10° NNE
YAOGAN 1 2.6 16:43:58 10° SSE 16:48:17 88° W 16:52:38 10° NNW
USA 116 3.6 16:45:12 10° N 16:48:43 82° W 16:52:39 10° SSW
Cosmos 1437 2.9 16:45:58 10° N 16:48:49 40° E 16:51:38 10° SSE
CSL-04 Rocket 3.7 16:43:50 10° SSE 16:49:08 62° ENE 16:54:32 10° N
GP-B 4.0 16:45:40 10° N 16:49:59 54° W 16:54:18 10° SSW
Cosmos 1603 3.8 16:44:31 10° NNW 16:50:07 59° ENE 16:55:39 10° SE
HJ-1C 3.4 16:51:22 10° SSE 16:54:33 53° ENE 16:57:46 10° N
USA 234 3.5 16:51:47 10° ENE 16:58:01 46° SE 17:04:14 10° SSW
Okean 2 3.5 16:56:59 10° N 17:01:10 82° W 17:05:19 10° S
Cosmos 372 Rocket 4.0 17:02:36 10° S 17:07:44 60° ESE 17:12:54 10° NNE
Cosmos 1072 Rocket 4.5 17:02:22 10° S 17:08:26 61° E 17:14:38 10° NNE
Milstar 3 Cent rocket 3.6 17:03:23 10° SW 17:08:28 21° S 17:10:42 16° SE
Cosmos 1782 Rocket 4.2 17:04:30 10° SSW 17:08:50 59° W 17:13:12 10° N
Cosmos 2150 Rocket 4.5 17:04:48 10° SSE 17:09:40 37° E 17:14:37 10° NE
USA 102 4.1 17:07:57 29° SE 17:10:01 66° ENE 17:59:44 10° NW
USA 102 4.2 17:07:57 29° SE 17:10:01 66° ENE 17:16:08 10° NNW
Cosmos 2151 Rocket 4.2 17:06:20 10° SSE 17:10:18 33° E 17:14:17 10° NNE
Cosmos 1975 4.4 17:07:34 10° SSW 17:11:23 39° W 17:15:14 10° N
CZ-4 R/B 3.1 17:07:43 10° SSW 17:11:37 36° W 17:15:31 10° NNW
Cosmos 2034 Rocket 4.3 17:08:45 10° SSE 17:14:42 43° E 17:20:39 10° NNE
USA 186 2.4 17:17:17 33° ENE 17:17:17 33° ENE 17:19:55 10° N
Cosmos 1025 Rocket 3.7 17:14:13 10° NNE 17:18:14 34° ENE 17:19:13 31° ESE
Cosmos 1125 Rocket 4.2 17:16:19 10° SSE 17:20:54 31° E 17:25:30 10° NE
MOS 1 Rocket 3.7 17:23:01 10° N 17:27:23 59° WNW 17:31:35 10° SSW
CZ-2C R/B 0.8 17:26:31 10° WSW 17:30:01 61° S 17:30:17 58° SSE
ATLAS 2AS CENTAUR R/B 4.0 17:25:00 10° SSE 17:37:35 - NE 17:29:04 23° SE
H-2A R/B 2.6 17:32:15 10° S 17:37:03 54° W 17:41:58 10° NNW
ARGOS 3.2 17:31:57 10° S 17:37:17 77° WSW 17:42:40 10° NNW
In-Cosmos 22 4.0 17:32:12 10° N 17:37:26 61° E 17:39:46 33° SSE
Cosmos 1975 Rocket 4.0 17:33:34 10° NNW 17:37:43 46° W 17:41:50 10° SSW
Resurs 01 Rocket 3.6 17:41:42 15° NE 17:41:42 15° NE 17:43:02 10° NNE
Cosmos 2084 Rocket 3.9 17:37:39 10° NW 17:42:06 64° WSW 17:43:57 33° S
MOS 1 4.3 17:40:21 32° SE 17:42:56 63° ENE 17:48:33 10° N
SJ-6B 2.9 17:46:09 56° NNE 17:46:09 56° NNE 17:49:20 10° N
CZ-2C R/B 2.6 17:40:19 10° NNE 17:45:53 87° ESE 17:51:30 10° SSW
Cosmos 1174 4.4 17:41:54 10° SSW 17:46:28 84° WNW 17:52:20 10° NNE
ATLAS 5 CENTAUR R/B 3.6 17:44:23 10° NW 17:48:20 63° SW 18:02:42 10° SSE
CENTAUR R/B 4.1 17:41:45 10° NNW 17:48:51 32° NE 17:51:22 27° ENE
Cosmos 1707 3.1 17:45:26 10° NNW 17:49:14 62° W 17:50:30 37° SSW
Cosmos 1844 3.6 17:43:54 10° S 17:49:30 59° ESE 17:55:04 10° NNE
Cosmos 2285 Rocket 4.0 17:46:37 10° S 17:52:42 55° ESE 17:58:50 10° NNE
Cosmos 1048 Rocket 4.4 17:48:56 10° N 17:53:54 45° ENE 17:53:54 45° ENE
USA 238 DEB 4.3 17:49:44 10° NNW 17:56:37 43° NE 17:58:11 39° E
USA 238 4.3 17:49:51 10° NNW 17:56:43 43° NE 17:58:16 38° E
SL-08 RB Rocket 4.1 17:54:39 26° S 17:57:09 62° W 18:01:42 10° NNW
Cosmos 1844 Rocket 2.6 17:56:08 10° SSW 18:01:41 86° WNW 18:07:18 10° NNE
DELTA 2 R/B (1) 3.6 17:57:39 10° WNW 18:03:08 65° SSW 18:03:49 59° SSE
ISS -1.3 18:05:14 10° WNW 18:07:48 20° NNW 18:08:14 19° NNW
Ariane Rocket 3.5 18:09:46 35° SSW 18:11:43 58° W 18:16:43 10° NNW
Meteor 1-15 Rocket 4.2 18:08:22 15° SSW 18:13:06 81° W 18:18:48 10° N
Cosmos 1092 Rocket 3.9 18:09:45 10° N 18:15:35 62° ENE 18:15:35 62° ENE
SPOT 3 Rocket 3.9 18:22:58 55° N 18:22:58 55° N 18:27:01 10° N
MetOp-A 4.5 18:22:26 50° SSW 18:23:30 60° W 18:28:47 10° NNW
Cosmos 2026 Rocket 4.4 18:17:17 10° N 18:22:22 48° NE 18:22:22 48° NE
Meteor 2-13 Rocket 4.3 18:19:01 10° N 18:24:57 77° NE 18:24:57 77° NE
NOSS 3-2 (A) 4.0 18:17:29 10° NNW 18:25:15 70° ENE 18:26:32 62° ESE
Centaur D-1AR AC-40 4.4 18:27:13 10° WSW 18:31:45 15° SSW 18:32:21 15° SSW
Cosmos 1867 4.4 18:33:28 10° NW 18:38:36 43° WSW 18:38:36 43° WSW
USA 234 4.0 18:34:45 10° NE 18:40:59 49° NW 18:47:12 10° WSW
NOSS 3-2 (C) 4.1 18:51:34 10° NNW 18:58:44 70° NNE 18:58:44 70° NNE
Resurs 01 Rocket 4.4 19:19:16 15° NW 19:19:16 15° NW 19:20:12 10° NNW
ATLAS 2AS CENTAUR R/B 3.9 19:13:43 10° SW 19:24:48 39° NNE 19:29:29 10° NNE
CENTAUR R/B 3.6 19:31:55 10° NW 19:38:33 58° WNW 19:38:33 58° WNW
ATLAS 3B R/B 4.2 19:39:28 10° NNW 19:42:49 28° N 19:42:49 28° N
